Location: Alessandria
(44.9000°N, 8.6170°E)
Time: 03:59:03
(UTC+02:00)

ISS - Pass Details

Date: 15 May 2021
Orbit: 417 x 422 km, 51.6° (Epoch: 14 June)

Event Time Altitude Azimuth Distance (km) Brightness Sun altitude
Rises 02:02:07 0° 293° (WNW) 2,370 0.2 -25.6°
Reaches altitude 10° 02:04:27 10° 306° (NW) 1,506 -0.7 -25.5°
Maximum altitude 02:07:21 26° 5° (N) 879 -1.5 -25.4°
Drops below altitude 10° 02:10:15 10° 64° (ENE) 1,507 -0.5 -25.3°
Sets 02:12:35 0° 78° (ENE) 2,372 0.4 -25.2°
